[Iaude] MPEC T33: 2016 TK2 [a=9.19,e=0.55,i=92.3,H=15.0]

mpec at si.edu mpec at si.edu
Tue Oct 4 20:40:00 EDT 2016


M.P.E.C. 2016-T33                                Issued 2016 Oct. 5, 00:33 UT
 
     The Minor Planet Electronic Circulars contain information on unusual
         minor planets and routine data on comets.  They are published
    on behalf of Division F of the International Astronomical Union by the
          Minor Planet Center, Smithsonian Astrophysical Observatory,
                          Cambridge, MA 02138, U.S.A.

             Prepared using the Tamkin Foundation Computer Network

                              MPC at CFA.HARVARD.EDU
            URL http://www.minorplanetcenter.net/    ISSN 1523-6714


                                   2016 TK2
 
Observations:
     K16T02K  C2016 07 28.50637 21 56 04.133-06 45 00.55         21.4 rLET033F51
     K16T02K  C2016 07 28.51761 21 56 03.190-06 44 56.98         21.6 rLET033F51
     K16T02K  C2016 08 08.55262 21 40 19.725-05 46 32.82         21.2 wLET033F51
     K16T02K  C2016 08 30.34596 21 08 58.751-04 03 47.04         21.0 wLET033F51
     K16T02K  C2016 08 30.35836 21 08 57.727-04 03 43.91         21.1 wLET033F51
     K16T02K  C2016 08 30.37077 21 08 56.707-04 03 40.65         21.0 wLET033F51
     K16T02K  C2016 09 26.23812 20 38 59.832-02 19 07.87         21.7 wLET033F51
     K16T02K  C2016 09 26.24983 20 38 59.230-02 19 05.22         21.7 wLET033F51
     K16T02K  C2016 09 26.28159 20 38 57.610-02 18 58.21         22.0 wLET033F51
     K16T02K* C2016 10 01.23589 20 35 05.873-02 01 25.17         21.4 wLET033F51
     K16T02K  C2016 10 01.24767 20 35 05.351-02 01 22.51         21.6 wLET033F51
     K16T02K  C2016 10 01.25942 20 35 04.840-02 01 19.88         21.3 wLET033F51
     K16T02K  C2016 10 01.27114 20 35 04.315-02 01 17.70         21.1 wLET033F51
     K16T02K  C2016 10 02.15662 20 34 26.43 -01 58 11.6          21.0 RoET033926
     K16T02K  C2016 10 02.17293 20 34 25.73 -01 58 07.7          21.1 RoET033926
     K16T02K KC2016 10 02.18806 20 34 25.06 -01 58 04.3          21.4 RoET033291
     K16T02K KC2016 10 02.19633 20 34 24.69 -01 58 02.9          21.4 RoET033291
     K16T02K KC2016 10 02.20462 20 34 24.35 -01 58 01.2                oET033291
     K16T02K KC2016 10 04.09477 20 33 07.22 -01 51 24.4                oET033291
     K16T02K KC2016 10 04.10353 20 33 06.92 -01 51 21.7                oET033291
     K16T02K KC2016 10 04.11228 20 33 06.55 -01 51 19.5                oET033291
     K16T02K  C2016 10 04.14674 20 33 05.13 -01 51 12.2          21.3 RoET033926
     K16T02K  C2016 10 04.16253 20 33 04.49 -01 51 09.0          21.3 RoET033926
     K16T02K  C2016 10 04.18096 20 33 03.75 -01 51 05.2          21.6 RoET033926
 
Observer details:
291 LPL/Spacewatch II.  Observer A. F. Tubbiolo.  1.8-m f/2.7 reflector + CCD.
926 Tenagra II Observatory.  Observers M. Schwartz, P. R. Holvorcem.  Measurer
    M. Schwartz.  0.81-m f/7 Ritchey-Chretien + CCD.
F51 Pan-STARRS 1, Haleakala.  Observers B. Gibson, T. Goggia, S. Kahale,
    A. Schultz, M. Willman.  Measurers K. Chambers, S. Chastel, L. Denneau,
    H. Flewelling, M. Huber, E. Lilly, E. Magnier, R. Wainscoat, C. Waters,
    R. Weryk.  1.8-m Ritchey-Chretien + CCD.
 
Orbital elements:
2016 TK2
Epoch 2016 July 31.0 TT = JDT 2457600.5                 MPC
M 359.81871              (2000.0)            P               Q
n   0.03539220     Peri.    5.34018     +0.79683283     -0.09900918
a   9.1875064      Node   323.37805     -0.58472732     -0.37479351
e   0.5519609      Incl.   92.34606     -0.15215586     +0.92180638
P  27.85           H   15.0           G   0.15           U   4
Residuals in seconds of arc
160728 F51  0.0   0.1-    160926 F51  0.0   0.3+    161002 291  0.3-  0.1-
160728 F51  0.0   0.2-    161001 F51  0.0   0.1-    161002 291  0.1-  0.1-
160808 F51  0.1-  0.1+    161001 F51  0.0   0.0     161004 291  0.3-  1.0-
160830 F51  0.1+  0.1+    161001 F51  0.1+  0.2+    161004 291  0.5+  0.2-
160830 F51  0.0   0.1+    161001 F51  0.0   0.1-    161004 291  0.2+  0.2+
160830 F51  0.1+  0.1+    161002 926  0.2+  0.4-    161004 926  0.2-  0.2+
160926 F51  0.0   0.1-    161002 926  0.2+  0.1+    161004 926  0.2-  0.1+
160926 F51  0.1-  0.1+    161002 291  0.1-  0.3+    161004 926  0.1-  0.0

Ephemeris:
2016 TK2                 a,e,i = 9.19, 0.55, 92                  q = 4.1164
Date    TT    R. A. (2000) Decl.     Delta      r     Elong.  Phase     V
2016 09 05    21 01 33.5 -03 39 59   3.2077  4.1209   151.3     6.7    21.1
...
2016 09 20    20 44 38.8 -02 41 45   3.3683  4.1265   133.7    10.1    21.4
...
2016 09 28    20 37 33.5 -02 12 50   3.4783  4.1303   124.6    11.5    21.5
...
2016 10 04    20 33 11.0 -01 51 42   3.5692  4.1336   117.9    12.3    21.6
2016 10 05    20 32 32.0 -01 48 12   3.5849  4.1342   116.9    12.5    21.6
2016 10 06    20 31 54.3 -01 44 42   3.6008  4.1347   115.8    12.6    21.6
...
2016 10 12    20 28 35.9 -01 23 42   3.6989  4.1385   109.4    13.1    21.7
...
2016 10 20    20 25 22.5 -00 55 18   3.8351  4.1440   101.1    13.6    21.8
...
2016 11 04    20 22 39.7 +00 01 05   4.0974  4.1559    86.5    13.8    21.9

A. U. Tomatic                (C) Copyright 2016 MPC           M.P.E.C. 2016-T33




More information about the Iaude mailing list